Regional Weather Roundup
Issued by NWS Mobile, AL

Home | Current Version | Previous Version | Text Only | Print | Product List | Glossary On
Versions: 1 2 3 4 5 6 7 8 9 10 11 12 13 14 15 16 17 18 19 20 21 22 23 24 25 26 27 28
000
ASUS44 KMOB 020612
RWRMOB
REGIONAL WEATHER ROUNDUP
NATIONAL WEATHER SERVICE MOBILE AL
100 AM CDT MON MAY 02 2016

NOTE: "FAIR" INDICATES FEW OR NO CLOUDS BELOW 12,000 FEET WITH NO
      SIGNIFICANT WEATHER AND/OR OBSTRUCTIONS TO VISIBILITY.

  * THESE STATIONS ARE PART OF THE UNIVERSITY OF SOUTH ALABAMA
    MESONET AND ARE NOT UNDER NWS OR FAA QUALITY CONTROL.

ALZ061>064-020700-
COASTAL ALABAMA

CITY           SKY/WX    TMP DP  RH WIND       PRES   REMARKS
MOBILE REG APT CLOUDY    73  72  96 SW3       30.00R
6HR MIN TEMP:  71; 6HR MAX TEMP:  74; 6HR PCP: TRACE;

BROOKLEY FIELD CLOUDY    75  72  90 E9        29.99R
6HR MIN TEMP:  75; 6HR MAX TEMP:  76; 6HR PCP: TRACE;

USA CAMPUS*    NOT AVBL
DOG RIVER*     NOT AVBL


CITY           SKY/WX    TMP DP  RH WIND       PRES   REMARKS
MOUNT VERNON*  NOT AVBL
SARALAND*      NOT AVBL
BAY MINETTE*   NOT AVBL
LOXLEY*        NOT AVBL
ROBERTSDALE*   NOT AVBL
FAIRHOPE*      NOT AVBL
ELBERTA*       NOT AVBL
FOLEY*         NOT AVBL
GRAND BAY*     NOT AVBL
DAUPHIN ISLND* NOT AVBL
BON SCOUR NWR* NOT AVBL
GULF SHORES    CLOUDY    74  73  99 E16       29.95F

$$

ALZ051>060-020700-
INTERIOR SOUTHWEST AND SOUTH CENTRAL ALABAMA

CITY           SKY/WX    TMP DP  RH WIND       PRES   REMARKS
GREENVILLE     MOCLDY    68  65  90 E3        29.99F
6HR MIN TEMP:  68; 6HR MAX TEMP:  73; 6HR PCP: TRACE;

EVERGREEN      MOCLDY    68  67  96 SE6       30.00F
6HR MIN TEMP:  68; 6HR MAX TEMP:  72;

CASTLEBERRY*   NOT AVBL
ATMORE*        NOT AVBL
DIXIE*         NOT AVBL
ANDALUSIA/OPP  CLOUDY    73  68  84 CALM      29.99F
6HR MIN TEMP:  73; 6HR MAX TEMP:  78;

ANDALUSIA*     NOT AVBL
FLORALA APT    MOCLDY    70  68  93 S5        30.00F
6HR MIN TEMP:  69; 6HR MAX TEMP:  77;

FLORALA*       NOT AVBL

$$

FLZ001>006-020700-
WESTERN FLORIDA PANHANDLE

CITY           SKY/WX    TMP DP  RH WIND       PRES   REMARKS
PENSACOLA      CLOUDY    76  72  87 E10       29.97F
6HR MIN TEMP:  75; 6HR MAX TEMP:  77;

NAS PENSACOLA  NOT AVBL
MILTON         LGT RAIN  72  72 100 E8        29.98F
6HR MIN TEMP:  72; 6HR MAX TEMP:  78; 6HR PCP: TRACE;

WHTNG S FIELD  CLOUDY    75  73  93 SE10      29.98F
6HR MIN TEMP:  75; 6HR MAX TEMP:  78;



CITY           SKY/WX    TMP DP  RH WIND       PRES   REMARKS
WALNUT HILL*   NOT AVBL
JAY*           NOT AVBL
DUKE FIELD     CLOUDY    72  71  94 SE5       29.98F
CRESTVIEW      CLOUDY    72  70  93 E3        30.00F FOG
6HR MIN TEMP:  71; 6HR MAX TEMP:  78;

VALPARAISO     CLOUDY    75  72  90 SE6       30.00R
6HR MIN TEMP:  74; 6HR MAX TEMP:  76;

DESTIN         CLOUDY    77  74  90 SE6       29.99S
6HR MIN TEMP:  77; 6HR MAX TEMP:  78;


$$

MSZ076-079-020700-
INTERIOR SOUTHEAST MISSISSIPPI

CITY           SKY/WX    TMP DP  RH WIND       PRES   REMARKS
LEAKESVILLE*   NOT AVBL
AGRICOLA*      NOT AVBL

$$

MARINE OBSERVATIONS

STATION/POSITION TIME  TEMP    WIND        PRES    WAVE
                       AIR SEA DIR/SP/G            HT/PER
                 (UTC) (F)     (DEG/KT/KT) (MB)    (FT/S)
PASCAGOULA       0500   76      90/  4/  6 1014.1F
PETIT BOIS ISLND 0500   78     120/  9/ 15 1014.0
GRAND BAY        0400   78     140/  8     1016.0R
KATRINA CUT      0500   76     150/ 16       N/A
CEDAR POINT      0500   76     150/ 14     1013.5S
E DAUPHIN ISLAND 0500   76     110/ 13/ 14 1013.4S
MIDDLE BAY LIGHT 0500   76      90/  6     1014.6R
USCG MOBILE BAY  0500   75 76   70/  5/  6 1015.0F
STATE DOCKS      0500   74 73              1014.3F
MEAHER PARK      0500   73      40/  3     1014.2F
WEEKS BAY        0400   74                   N/A
FORT MORGAN      0500   76     150/ 15/ 18 1013.3S
12 S ORANGE BCH  0550   75 74  140/ 16/ 17 1012.7F   4/ 7
PENSACOLA BAY    0500   85 71  130/  2/  6 1015.4F
64 S DAUPHIN ISL 0500   76 76  140/ 16/ 17 1014.3F

$$

SELECTED LOCATIONS ACROSS THE REGION

CITY           SKY/WX    TMP DP  RH WIND       PRES   REMARKS
NEW ORLEANS    CLOUDY    69  65  86 N5        29.95S
GULFPORT       CLOUDY    70  66  87 SE3       29.95F
PASCAGOULA AP  CLOUDY    71  70  96 CALM      29.98R
PASCAGOULA*    NOT AVBL
HATTIESBURG    MOCLDY    65  64  97 CALM      29.99S
LAUREL         MOCLDY    64  63  94 CALM      30.00S
MERIDIAN       CLOUDY    66  65  96 S5        29.98S
JACKSON        CLEAR     67  63  87 S8        29.98R
MONTGOMERY     CLOUDY    69  65  86 E3        30.00F
TROY           CLOUDY    68  66  93 CALM      30.01F
KINSTON*       NOT AVBL
GENEVA*        NOT AVBL
ASHFORD*       NOT AVBL
DOTHAN         PTCLDY    70  67  90 CALM      30.04F
PANAMA CITY    MOCLDY    71  70  96 E5        29.99F

$$





USA.gov is the U.S. government's official web portal to all federal, state and local government web resources and services.